User: anonymous   Login
Location: Unspecified
(0.0000°N, 0.0000°E)
Time: 17:03:33
(UTC+00:00)
Language:

AIST 2 - Orbit

View from above orbital plane
View from above orbital plane
View from above satellite
View from above satellite

Ground track
Ground track

The orbit data is extracted from the following two-line orbital elements,

1 39133U 13015D   17265.22940716  .00000191  00000-0  26155-4 0  9995
2 39133  64.8746 338.8620 0038238 265.7446  93.9303 15.04360534242897
Epoch (UTC): 22 September 2017 05:30:20
Eccentricity: 0.0038238
inclination: 64.8746°
perigee height: 527 km
apogee height: 580 km
right ascension of ascending node: 338.8620°
argument of perigee: 265.7446°
revolutions per day: 15.04360534
mean anomaly at epoch: 93.9303°
orbit number at epoch: 24289

The dashed part of the orbit path shows where the satellite is in the earth's shadow,  

DLR